Theta_e
312 310 323 322 316 311 313 315 318 320 322 324 324 327 348 348 350 358 356 357 354 349 346 349 351 349 346 341 338 332 327 325 328 332 335 337 338 336 329 335 339 342 341 340 337 335 329 325 323
311 317 325 319 313 311 312 314 316 317 319 317 317 324 343 352 349 356 359 358 351 347 347 350 351 349 345 341 337 332 327 325 327 330 337 335 334 331 332 338 341 341 337 336 333 330 325 325 323
319 325 325 322 310 311 310 312 315 316 315 316 315 320 346 355 346 354 358 357 352 348 346 350 351 348 345 341 338 332 327 326 327 333 339 334 330 331 337 340 342 340 337 337 336 325 323 323 323
318 316 319 318 314 312 312 313 313 315 317 317 318 319 351 349 349 354 358 355 352 347 346 349 350 348 345 341 338 332 327 327 328 334 337 333 331 333 337 338 339 340 338 336 335 325 323 324 324
318 313 318 316 315 314 315 315 315 315 316 316 317 321 357 352 357 358 357 355 352 346 345 348 349 349 345 340 339 332 328 327 328 332 333 335 332 334 336 337 337 336 336 333 324 323 324 324 324
312 313 318 318 318 317 316 315 315 317 317 316 316 332 353 358 358 358 356 353 353 347 345 345 348 348 346 341 339 333 328 327 329 332 332 335 334 334 335 335 336 335 331 326 326 325 324 323 323
311 310 315 318 318 317 318 315 315 314 314 316 316 317 353 359 358 357 355 354 353 350 346 345 346 347 347 341 340 333 329 328 328 331 331 336 340 341 341 340 339 336 333 330 331 329 326 323 323
308 307 312 312 315 314 315 314 314 314 316 316 317 316 347 360 359 356 355 354 353 350 349 348 346 353 350 343 341 334 329 328 328 331 337 341 344 343 341 339 335 332 332 331 329 328 325 323 326
306 305 307 310 313 313 311 312 314 315 314 315 315 316 332 360 359 356 356 357 355 353 350 352 352 356 355 349 344 334 330 329 330 335 339 343 343 340 334 332 332 330 330 329 327 324 322 324 328
305 302 306 310 310 310 310 311 312 313 313 314 314 315 319 330 349 357 357 356 356 355 352 352 352 352 355 354 352 340 335 334 333 336 338 339 339 337 333 333 330 330 328 326 324 323 322 324 328
308 306 306 307 307 308 309 309 310 311 311 312 313 313 316 325 329 346 357 356 355 354 353 352 351 355 353 351 351 346 344 335 336 336 334 335 337 336 334 332 338 332 326 324 323 323 323 327 332
311 310 309 308 308 308 308 310 310 310 310 311 312 313 315 318 322 331 332 356 354 354 353 352 347 351 352 351 346 341 340 336 333 332 333 334 335 335 335 336 335 334 325 324 325 326 328 333 339
312 311 311 311 309 309 310 310 310 310 311 312 311 312 313 316 316 318 322 341 354 352 352 353 351 349 349 349 344 339 339 337 333 331 333 334 338 336 341 341 339 336 326 327 332 334 338 341 340
310 312 312 311 310 310 312 311 310 312 312 311 311 311 311 313 315 315 316 332 354 350 350 351 351 351 348 347 345 341 341 339 335 331 332 336 343 340 341 342 341 333 331 333 335 339 338 338 341
312 312 312 312 312 311 311 311 312 312 310 310 310 311 311 311 313 313 315 320 352 348 346 349 348 350 349 346 344 343 342 341 336 331 330 337 343 343 341 341 342 340 338 339 339 337 341 344 347
312 311 312 311 313 313 311 312 312 311 310 312 311 310 311 311 311 312 313 329 351 346 345 345 346 347 348 346 345 343 342 340 335 331 328 336 341 346 343 342 342 340 339 340 343 346 348 344 344
312 313 314 314 313 313 311 313 312 311 310 311 311 309 310 310 310 312 313 321 346 345 344 344 344 344 345 343 341 338 337 337 333 334 335 335 345 345 343 341 340 338 339 343 345 345 344 341 339
316 315 314 315 315 315 315 315 314 311 310 310 311 309 310 312 310 312 313 322 344 345 343 343 344 343 342 341 340 337 336 335 338 338 341 335 345 343 343 340 339 341 344 347 346 344 340 337 338
317 317 318 317 317 316 316 316 316 313 311 308 307 309 308 310 311 312 313 322 338 345 343 343 346 343 342 340 341 340 339 338 339 339 340 337 345 343 344 340 341 345 347 347 345 342 340 336 334
317 318 319 318 317 317 317 317 317 313 313 311 311 311 309 310 311 311 312 329 347 347 345 345 345 344 343 344 343 342 342 341 338 340 342 341 344 345 343 342 346 345 345 343 342 341 335 332 332
315 316 316 316 316 316 317 319 318 317 314 313 313 311 310 311 311 312 312 322 344 346 345 344 346 346 344 344 348 348 347 346 347 347 345 343 345 346 344 345 345 344 344 342 341 339 337 332 325
316 315 316 317 316 318 320 322 319 318 318 315 315 312 311 311 311 312 311 312 343 345 344 344 343 344 344 342 345 349 348 348 349 349 348 346 347 345 344 345 345 343 342 340 337 333 332 332 325
322 320 319 318 317 315 318 324 319 318 319 317 316 315 313 311 311 310 310 311 337 344 343 342 342 341 338 333 342 350 348 348 350 350 349 348 346 346 345 344 343 340 336 334 332 331 328 325 326
318 318 319 320 318 323 319 320 318 317 317 317 316 314 314 313 313 313 311 313 318 338 341 341 341 340 341 340 342 351 349 349 348 346 345 345 345 343 342 340 337 335 332 331 329 325 323 321 319
315 317 320 324 322 324 319 320 319 317 317 316 316 315 315 314 313 314 311 310 315 342 340 339 341 341 341 346 348 351 349 349 346 344 343 341 340 339 337 337 334 331 330 327 325 320 318 319 319
314 315 315 322 317 319 320 324 321 316 316 316 316 315 313 313 312 313 314 312 312 342 343 342 338 338 341 344 345 348 348 347 344 343 341 339 339 337 336 334 332 329 325 322 319 317 316 317 321
312 314 315 320 319 321 317 316 315 314 314 316 315 315 314 313 314 313 313 308 313 337 346 345 343 337 340 341 338 345 346 346 342 340 341 339 336 335 334 331 328 324 321 319 317 319 319 319 319
313 314 315 321 324 324 317 316 315 317 318 317 316 315 314 313 314 310 310 309 314 336 344 343 347 341 339 345 337 339 345 340 339 339 337 335 333 333 331 326 323 323 320 317 319 321 319 317 317
313 314 319 320 321 320 321 317 312 315 316 315 314 316 314 312 314 313 310 310 315 334 345 344 348 348 347 347 344 340 336 339 338 337 336 333 333 331 327 323 323 319 317 319 320 318 318 318 317
312 315 317 322 323 322 319 320 314 312 314 313 314 314 312 313 312 314 312 311 319 333 345 345 345 345 345 344 341 340 337 337 337 335 333 333 331 327 323 322 320 320 320 321 320 318 318 317 315
Wind_Speed
13 7 6 3 3 4 4 8 5 13 4 0 4 1 14 7 8 5 8 31 37 46 40 38 35 32 31 29 28 26 25 26 26 26 26 26 26 26 27 26 23 21 19 18 16 14 13 12 12
10 4 2 2 4 1 6 5 11 14 1 12 15 1 3 7 1 9 18 30 44 45 40 39 37 33 32 30 28 27 26 26 28 29 27 26 26 26 26 24 22 19 19 16 14 13 11 11 11
8 1 3 4 4 7 6 5 9 12 7 8 9 9 5 5 4 13 21 38 49 45 42 38 37 36 32 31 30 28 27 27 28 29 27 26 26 26 24 22 20 18 16 14 12 12 11 10 10
4 4 3 3 10 7 6 8 6 17 14 5 4 7 2 10 13 19 42 44 49 46 41 38 35 35 33 32 31 30 28 28 29 28 27 26 26 25 22 20 18 16 13 12 10 10 10 9 8
2 3 1 3 8 5 8 7 10 11 12 12 7 8 1 5 9 33 39 46 52 48 42 38 35 33 34 31 30 31 30 29 29 28 26 25 25 24 21 18 16 14 13 11 10 9 9 8 7
3 2 1 6 8 6 8 10 8 9 11 14 12 7 4 18 29 22 26 30 40 48 43 39 35 33 32 33 30 30 30 29 29 28 27 26 24 23 20 18 16 14 13 11 10 9 8 7 6
4 3 4 4 5 7 7 6 7 6 8 8 14 5 4 10 24 30 31 29 33 39 41 39 35 33 31 31 31 29 29 30 29 27 26 26 23 21 19 16 15 13 11 10 9 8 7 6 6
4 3 3 3 2 7 6 11 6 6 13 10 6 7 8 13 28 29 29 32 35 36 37 36 33 29 29 30 30 29 29 29 29 28 27 25 22 19 17 15 13 12 11 10 9 8 7 7 7
3 2 2 4 4 6 10 8 8 5 7 6 8 7 17 27 31 29 25 24 30 31 34 31 32 28 25 26 27 29 28 27 28 27 26 24 22 19 17 15 12 11 11 10 9 9 8 8 7
3 3 6 6 6 9 9 7 17 9 10 4 14 16 25 20 8 25 24 23 26 28 33 33 31 29 25 23 24 27 28 28 28 28 26 25 22 20 17 14 12 10 10 10 9 8 8 9 7
3 6 9 12 13 11 11 8 5 6 5 5 9 11 8 3 8 24 27 36 40 36 32 36 35 31 26 25 26 27 26 29 27 26 26 24 21 19 16 15 14 12 11 11 10 9 10 7 5
4 7 7 9 10 5 7 4 8 7 5 6 6 9 7 10 10 5 24 25 29 34 37 39 40 37 30 24 29 31 29 29 29 27 26 25 23 20 17 16 15 13 12 10 10 10 8 7 7
3 5 10 8 8 7 4 7 6 13 7 6 10 4 9 9 5 4 8 28 22 28 28 32 37 41 37 31 32 32 30 29 28 27 28 28 24 23 18 16 15 15 13 12 11 10 8 9 8
6 14 15 7 10 6 5 8 6 20 17 5 10 7 6 10 8 7 16 16 16 17 33 34 32 35 37 34 32 31 28 28 27 28 30 29 23 20 19 17 14 14 14 12 13 13 13 11 10
12 12 15 9 6 7 5 11 14 18 11 13 10 17 6 9 11 6 8 9 19 20 21 39 33 32 35 34 33 30 29 28 28 27 29 29 22 23 20 17 15 14 13 14 16 16 17 8 14
7 5 5 6 5 8 6 17 25 12 11 19 11 13 14 6 10 15 4 7 20 32 35 32 35 33 29 31 31 30 27 28 27 26 28 30 22 22 25 20 15 13 10 11 9 12 18 16 11
3 5 9 10 4 9 7 18 12 11 11 17 15 9 13 10 7 19 4 6 18 35 44 37 37 39 36 30 30 29 28 26 25 26 27 29 20 22 20 18 14 11 5 12 16 18 17 14 10
6 7 7 8 13 15 13 18 13 8 9 15 17 13 9 12 11 17 6 9 20 35 39 46 40 40 37 33 29 27 29 26 26 26 28 28 22 18 18 14 12 6 11 17 17 17 13 9 5
16 18 21 20 17 10 18 21 18 9 8 9 9 10 8 10 8 15 10 11 20 33 37 33 38 40 39 37 31 27 27 28 29 27 29 30 22 20 14 14 9 13 15 14 12 13 9 7 3
20 21 23 24 20 18 16 24 20 6 8 8 11 13 10 6 6 6 8 14 33 33 37 34 37 44 47 36 35 38 32 30 29 28 27 31 24 21 17 13 15 16 17 16 14 11 11 8 6
13 12 14 19 9 9 13 30 17 16 8 9 11 9 9 13 14 6 6 14 26 29 34 37 35 46 45 36 34 31 30 30 25 28 30 27 26 22 18 16 15 14 14 15 12 9 6 7 8
19 11 17 20 15 12 7 21 19 9 19 17 16 13 11 14 12 6 8 6 25 32 41 45 45 46 50 46 31 33 35 23 23 29 29 28 25 23 19 17 15 12 11 13 10 7 8 7 11
7 14 12 7 9 8 11 8 27 11 16 16 17 15 13 13 12 10 9 12 27 32 32 39 42 42 42 44 39 31 28 28 30 32 32 30 28 25 21 17 13 14 14 12 10 10 11 10 9
5 6 8 4 4 10 8 13 28 12 14 17 15 12 13 12 14 15 11 21 18 34 36 38 41 41 38 40 41 30 29 31 30 33 34 33 31 26 20 17 17 16 15 15 15 14 14 13 14
2 3 4 3 0 9 4 12 20 8 10 13 14 17 18 14 12 15 9 9 14 29 36 39 41 42 41 40 38 29 30 36 38 37 35 34 31 28 26 20 19 19 19 18 17 16 15 13 16
10 8 4 5 3 7 1 7 6 10 13 17 16 13 11 11 12 15 14 13 17 25 37 35 38 38 41 41 36 33 31 32 30 34 39 33 34 29 25 22 24 22 21 20 19 18 18 18 21
5 3 6 6 12 9 4 7 10 15 13 11 15 8 9 10 14 16 15 10 19 25 34 39 39 39 40 36 34 33 37 33 29 32 39 37 33 31 26 26 26 24 22 20 19 20 21 20 20
10 5 1 2 4 5 5 7 8 5 4 6 8 5 8 9 8 8 8 10 22 26 32 38 39 41 42 35 36 33 24 31 30 38 35 36 35 33 30 28 27 25 22 21 21 22 20 21 18
2 2 3 3 4 4 4 5 7 8 7 8 8 9 9 9 7 8 7 8 25 27 29 38 38 35 35 34 38 33 35 43 45 43 43 38 35 33 33 30 28 25 23 23 24 23 22 20 19
10 10 8 5 5 5 4 14 6 9 5 6 8 8 6 8 7 7 9 4 15 20 25 31 35 35 42 43 43 35 51 48 47 44 44 44 40 34 33 30 27 25 25 23 23 22 20 22 21
Wind_Direction
323 325 328 27 66 66 251 251 268 282 305 126 270 197 189 172 167 212 161 160 165 162 161 163 163 159 156 152 147 143 141 140 140 139 138 139 140 141 140 139 136 135 133 134 134 130 128 125 125
332 12 93 79 104 107 264 233 244 254 339 322 321 40 254 229 246 131 128 166 165 163 162 164 163 162 159 156 150 145 144 144 144 142 141 141 142 143 143 141 139 138 133 132 132 132 132 131 129
330 340 97 142 159 203 220 242 247 275 332 327 306 322 163 215 128 150 158 157 160 162 162 165 165 162 163 159 154 150 149 149 148 146 144 145 145 145 145 144 145 146 141 134 132 134 136 134 135
338 19 14 153 228 253 214 289 300 311 313 287 305 325 331 247 162 172 158 160 160 161 164 165 168 166 164 164 158 155 153 152 153 151 147 148 148 148 149 150 152 153 151 145 145 143 142 143 144
64 68 289 239 251 261 282 279 291 299 297 294 316 298 12 347 111 147 153 159 161 161 164 166 170 171 167 167 163 158 156 156 157 155 151 152 152 152 154 156 160 160 159 156 155 153 152 153 152
9 87 103 238 259 298 295 283 322 296 294 316 357 293 219 134 126 141 146 149 160 160 164 166 173 174 172 169 168 162 159 159 161 159 155 154 155 155 157 162 166 166 166 164 163 164 164 162 160
131 93 228 256 276 299 282 326 305 316 343 332 314 285 155 144 144 148 149 156 155 159 163 167 173 175 176 174 170 166 164 162 163 163 159 159 159 158 160 166 171 173 178 176 176 179 179 176 167
134 105 254 265 297 277 299 318 308 17 321 331 358 39 266 172 153 145 147 159 161 163 167 168 171 171 176 177 174 169 169 166 165 166 163 162 162 163 164 170 179 180 188 189 190 194 192 185 187
90 47 299 279 307 269 309 314 307 281 314 321 349 348 350 162 150 139 137 144 159 166 170 167 166 166 167 175 176 173 171 170 167 168 166 166 169 171 170 174 184 193 199 203 204 203 199 205 205
122 140 231 217 248 273 280 282 299 323 324 322 331 353 6 6 315 156 156 158 164 167 172 169 166 164 163 166 169 173 170 169 171 173 171 174 177 178 176 182 192 204 208 211 210 208 210 214 223
236 211 245 268 255 252 266 281 262 294 302 293 305 320 332 119 271 271 170 166 175 173 168 174 168 164 162 164 170 171 172 171 176 177 177 177 182 181 186 190 198 207 212 205 204 207 210 210 227
278 249 247 271 270 290 273 250 286 238 253 271 296 298 305 318 301 69 344 181 166 173 173 172 175 169 167 162 175 177 179 179 180 181 180 180 184 186 192 197 203 210 209 203 201 205 211 217 233
239 323 317 296 274 252 283 295 258 284 241 303 308 342 302 296 301 299 147 288 172 167 169 168 168 169 174 176 179 184 186 187 185 182 183 186 184 189 192 203 214 218 208 204 208 213 201 231 257
304 312 305 309 305 299 302 288 342 282 287 309 299 280 250 282 285 326 6 350 170 181 167 164 163 166 174 178 184 187 190 192 189 188 190 189 192 196 199 205 217 217 214 217 227 239 241 255 263
307 316 316 302 292 282 350 307 264 270 301 286 274 284 240 254 284 282 91 354 194 171 163 159 163 170 174 178 184 190 193 198 195 193 194 192 195 204 205 207 218 231 236 248 249 254 257 208 147
313 312 322 280 322 280 126 267 267 268 262 270 262 270 280 216 264 281 83 96 178 163 160 162 162 169 175 180 185 185 194 199 197 196 194 197 205 218 209 212 221 212 227 224 217 181 140 141 147
316 262 272 293 284 265 180 262 284 268 249 262 266 245 272 278 252 281 303 133 180 167 162 166 173 171 174 181 189 184 191 197 197 202 201 202 202 204 198 200 202 204 197 167 142 132 144 141 135
260 278 277 277 300 301 287 277 282 265 250 252 261 251 261 278 264 266 256 157 179 171 170 170 173 174 173 175 186 189 188 195 199 208 207 203 205 206 207 213 212 204 156 134 137 138 132 119 102
255 262 269 268 282 280 289 284 283 272 267 260 258 267 233 259 261 263 273 172 184 177 172 185 173 177 174 168 178 185 193 197 202 210 212 205 201 199 209 212 202 163 147 148 152 140 129 95 115
249 258 269 271 270 264 272 278 286 259 259 252 258 265 264 250 255 259 279 170 170 178 185 186 180 177 182 180 179 188 187 194 200 210 212 202 201 193 191 178 157 158 152 151 152 148 127 100 99
277 281 289 285 289 269 289 277 271 273 252 253 253 251 257 253 260 235 239 176 174 178 179 188 189 184 182 188 172 176 181 180 189 205 208 205 203 189 180 165 159 157 153 153 152 152 144 136 86
282 292 291 290 292 287 187 281 263 267 267 249 250 249 249 251 254 236 214 198 172 186 187 187 193 190 191 192 177 178 183 161 188 196 195 192 193 177 165 164 166 155 155 151 144 126 115 127 125
300 310 299 304 298 295 234 267 276 223 256 250 251 250 245 247 249 236 206 224 185 185 189 193 190 192 190 192 185 191 180 174 189 183 178 173 164 158 157 161 156 153 149 145 137 128 121 116 124
23 357 312 241 153 259 203 218 267 258 258 251 241 237 244 239 245 249 208 230 174 188 190 193 192 198 194 195 194 196 177 169 156 154 147 149 153 147 149 147 148 145 142 138 133 127 125 125 113
35 7 319 296 230 255 187 241 262 270 291 263 246 238 244 243 234 244 220 206 181 180 190 193 193 198 202 199 195 193 175 171 159 150 143 144 142 145 145 148 146 141 138 133 133 129 121 117 104
263 184 183 271 238 294 68 246 252 222 246 265 245 239 235 245 236 238 232 217 194 181 186 189 192 196 200 195 195 191 176 162 153 150 144 144 150 152 149 148 148 142 139 138 135 123 111 106 98
276 162 226 251 261 256 236 274 284 256 260 282 272 224 233 258 238 226 224 193 201 186 186 188 191 197 197 193 191 189 189 166 153 144 149 152 156 150 146 147 143 142 142 137 132 124 111 102 101
201 190 336 186 255 247 255 243 235 283 278 305 315 281 262 271 278 224 219 179 194 189 184 189 193 195 193 193 191 183 178 169 165 152 145 150 151 147 148 149 145 145 139 135 129 120 111 105 105
325 201 179 210 230 262 288 245 217 214 225 260 270 266 275 287 297 311 256 196 188 185 177 185 189 187 185 177 171 180 164 161 161 152 154 154 151 150 150 152 148 139 134 135 126 117 122 117 110
256 262 238 238 223 221 261 264 201 193 247 299 293 302 290 280 279 290 292 223 181 172 183 181 187 178 162 160 152 150 158 174 155 153 156 154 151 152 153 148 145 139 138 137 127 128 129 120 109